STARLINK-1202, 45183

Orbit data source: Space-Track

STARLINK-1202, 45183 is a payload satellite owned by SpaceX/Seattle (US) in LEO that was launched on Mon, 17 Feb 2020 UTC via an FALCON 9 launch vehicle from the Air Force Eastern Test Range (AFETR). Payload-class satellites include a variety of spacecraft equipped with specific instruments for various scientific and technological missions. These include communications satellites like Starlink; space stations such as the ISS; scientific satellites like the Hubble; Earth observation satellites from companies like Planet Labs, Umbra, and HawkEye 360; GPS; miniature CubeSats for education and research; and military/defense satellites.

Loading next visibility...
Identifier
45183, 2020-012F
Orbit
LEO
Country
Flag of USUS
Related business
Manufacturer
SpaceX/Seattle
Mission
Operational Commercial Communications
Bus & Motor
STARLINK, Unknown motor
Mass
260 kg wet, ~248 kg dry
Launch date (UTC)
2020-02-17 (6 years ago)
Launch vehicle
FALCON 9
Launch site
Air Force Eastern Test Range (AFETR)
Object type
Payload
Rocket body
Debris
Shape & HBR
Box + 1 Pan, 10.1 m
Radar Cross Section
13.562 m², Large (>1 m²)

Expand to show TLE details & history
Last TLE update: 11 hours ago

TLE from 11 hours ago
0 STARLINK-1202
1 45183U 20012F   26073.84837692  .00004362  00000-0  15930-3 0  9997
2 45183  53.1626  15.2886 0001043  79.7225 280.3893 15.30197698335740
Epoch: 2026-03-14T20:21Z
TLE epoch observation values (Epoch: 2026-03-14T20:21:39.765Z)
Latitude
-0.00007°
Longitude
-102.59081°
Altitude
475.993 km
Speed
7.629 km/s
True Right ascension
01h 01m 09s
True Declination
0° 00' 00"
Sunlit
Object was in daylight at epoch
Visualization orbit readout
Latitude
Unknown
Longitude
Unknown
Altitude
Unknown
Speed
Unknown
Apparent Right ascension
Unknown
Apparent Declination
Unknown
Sunlit
N/A
Visualization observer readout
Local Sidereal Time
11:59:27
Azimuth
Unknown
Elevation
Unknown
Doppler factor
Unknown
Orbital elements
Apogee altitude
476.193 km
Perigee altitude
474.763 km
Semi-major axis
6,853.615 km
Eccentricity
0.0001
Inclination
53.1626°
RAAN
15.2886°
Arg. of periapsis
79.7225°
True anomaly
280.37754°
Mean anomaly
280.3893°
Eccentric anomaly
280.38342°
Mean motion
3.82528 °/min
Orbital period
94.11 mins
BSTAR
0.0001593
Loading maneuver chart data...
Computing Atmospheric mass density...
Loading historical data...
Loading historical data...
Loading historical data...
Loading historical data...
Loading historical data...
Loading historical data...
Loading historical data...

Documentation

Showing up to 5 results
|